Lid_Strength_Index
13 13 12 14 15 15 16 16 17 14 13 11 10 10 8 7 6 8 9 5 5 4 4 3 3 3 3 2 2 2 2 2 2 1 1 1 1 1 1 1 1 1 1 1
14 12 13 14 13 13 14 14 15 13 13 9 8 8 8 8 8 8 7 7 5 4 4 4 3 3 3 3 2 2 2 2 2 2 1 1 1 1 1 1 1 1 1 1
17 13 14 15 13 12 12 13 12 13 11 9 10 9 8 8 7 7 7 6 6 4 4 3 3 3 3 3 2 2 2 2 2 2 2 2 1 1 1 1 1 1 1 1
16 15 20 13 9 9 12 13 12 12 13 9 9 9 10 9 9 7 6 6 5 4 4 3 2 2 2 2 2 2 2 2 2 2 2 2 2 2 1 1 1 1 1 1
17 18 14 12 11 13 14 13 12 13 14 14 10 9 9 9 9 7 5 6 5 3 3 3 3 2 2 3 2 3 3 2 2 2 2 2 2 2 1 1 1 1 1 1
15 19 20 14 12 11 10 15 12 13 14 14 10 14 13 11 10 10 7 6 4 4 4 4 3 2 3 3 3 3 3 2 2 2 2 2 2 2 1 1 2 1 1 1
15 17 14 13 12 11 16 15 12 12 14 15 15 13 10 10 12 10 9 7 6 4 4 3 3 3 3 3 3 2 2 2 2 2 2 2 2 1 1 2 1 2 2 1
15 17 18 12 13 14 14 12 12 12 13 13 13 12 11 11 12 12 12 8 8 7 4 3 3 3 3 3 2 2 2 2 2 2 2 2 2 2 2 2 2 2 2 2
13 14 11 11 12 10 10 12 12 12 12 11 12 14 13 12 12 12 12 11 9 7 8 6 4 3 4 3 2 2 2 2 2 2 2 1 2 2 2 2 2 3 3 3
12 12 12 11 10 10 10 11 10 10 10 10 11 11 13 13 12 12 12 12 10 8 8 7 7 6 3 2 2 2 3 3 2 2 2 2 2 2 2 2 3 3 3 3
12 12 12 11 10 10 10 10 10 9 9 9 10 11 11 13 13 11 11 11 11 10 8 7 7 6 5 4 3 2 3 3 2 2 2 2 2 2 2 1 2 2 2 2
14 11 12 12 11 9 9 10 9 9 9 9 9 10 10 11 12 11 11 11 10 10 8 7 6 6 6 5 3 4 4 3 3 2 2 2 3 5 15 14 16 16 14 8
11 9 10 10 9 10 10 10 9 9 8 9 8 9 10 10 11 10 9 10 9 9 8 7 7 6 5 4 3 3 3 3 2 3 2 3 3 4 5 9 17 18 17 17
9 9 11 10 11 9 9 9 9 9 8 8 8 8 9 10 11 11 10 9 9 8 7 7 6 6 5 3 2 2 2 7 2 2 2 2 2 3 3 4 5 5 16 16
8 8 9 10 10 9 9 9 8 9 9 8 8 9 9 10 11 10 9 9 9 7 7 7 7 6 4 2 2 2 2 2 2 2 2 3 2 2 2 3 4 5 8 13
9 8 8 10 11 10 10 10 10 9 8 8 8 9 9 9 10 10 9 8 8 8 7 6 6 4 4 4 3 2 2 4 4 2 2 2 2 3 3 4 5 6 6 6
11 10 10 10 10 10 10 10 10 9 8 8 7 8 9 9 9 9 9 8 8 8 8 7 7 6 5 5 5 4 2 2 3 2 2 2 2 3 3 3 4 5 5 7
8 8 9 9 9 9 9 9 10 9 9 7 7 7 7 8 8 8 8 8 8 8 8 7 7 7 6 6 5 5 4 2 2 2 2 2 2 2 2 3 4 5 7 10
7 8 8 9 9 9 9 9 9 9 9 8 8 8 8 8 8 8 8 10 10 11 10 8 7 7 7 6 5 5 4 3 2 2 2 4 3 2 3 3 4 5 7 9
6 7 8 8 8 8 9 9 8 9 8 8 9 9 9 9 8 9 9 10 11 11 10 9 9 8 7 6 5 5 5 3 2 2 2 3 3 3 3 7 5 6 6 7
5 5 6 8 9 9 8 8 9 10 9 9 9 9 9 9 9 9 10 10 10 9 10 9 9 8 7 6 5 3 3 2 2 3 3 3 5 5 5 6 7 8 8 10
6 5 6 6 8 9 8 8 8 9 9 9 9 9 9 9 9 9 9 9 8 7 8 10 10 8 7 7 8 9 7 7 6 6 7 9 9 9 10 10 12 11 13 13
7 7 5 6 6 7 8 8 8 8 8 8 9 9 9 9 9 10 10 8 8 8 8 8 8 9 8 8 9 10 10 11 12 11 11 12 12 13 13 13 14 14 15 15
9 9 8 6 5 6 7 7 8 8 8 8 7 7 8 8 9 8 8 7 7 8 8 8 8 8 9 9 8 9 10 12 13 13 14 14 14 14 15 15 16 15 14 15
9 9 9 9 9 9 8 7 7 8 9 9 8 8 7 6 7 7 7 8 8 8 8 7 8 9 10 10 9 8 10 11 12 12 13 13 15 15 16 16 16 16 16 16
9 9 9 9 9 9 9 9 9 8 9 9 9 9 8 8 8 7 7 7 8 8 8 8 8 8 9 10 10 9 9 10 11 11 13 13 14 15 15 15 15 16 16 16
9 8 9 9 9 9 8 8 8 9 8 8 8 8 8 8 8 8 7 7 8 8 8 8 8 9 9 9 9 9 9 10 11 11 13 13 14 13 15 15 15 16 16 16